CW0641 Weather Reports


Display with metric or nautical units.
time (UTC)temp
F
wind
direction
speed
MPH
gust
MPH
rain 1hr
in
rain 24hr
in
rain mn
in
humidity
%
barometer
mb
20260906124539 81 277 5.0 14.0 0.00 0.00 0.00 50 1013.6
20260906124348 81 324 5.0 14.0 0.00 0.00 0.00 55 1013.5
20260906123539 81 286 5.0 14.0 0.00 0.00 0.00 56 1013.4
20260906123349 81 281 5.0 14.0 0.00 0.00 0.00 52 1013.4
20260906122542 81 289 5.0 12.0 0.00 0.00 0.00 52 1013.5
20260906121539 81 335 6.0 12.0 0.00 0.00 0.00 53 1013.3
20260906121345 81 284 6.0 14.0 0.00 0.00 0.00 53 1013.4
20260906120342 82 279 6.0 15.0 0.00 0.00 0.00 53 1013.4
20260906115539 82 315 6.0 15.0 0.00 0.00 0.00 51 1013.5
20260906115349 83 286 5.0 13.0 0.00 0.00 0.00 49 1013.6
20260906114536 83 355 4.0 12.0 0.00 0.00 0.00 48 1013.6
20260906114341 83 332 4.0 11.0 0.00 0.00 0.00 45 1013.5
20260906113535 83 327 4.0 10.0 0.00 0.00 0.00 44 1013.5
20260906113339 84 279 4.0 13.0 0.00 0.00 0.00 44 1013.4
20260906112534 83 319 3.0 13.0 0.00 0.00 0.00 45 1013.3
20260906112336 84 305 4.0 12.0 0.00 0.00 0.00 45 1013.5
20260906111535 84 333 4.0 12.0 0.00 0.00 0.00 46 1013.5
20260906111338 84 275 4.0 12.0 0.00 0.00 0.00 46 1013.5
20260906110535 84 292 4.0 12.0 0.00 0.00 0.00 44 1013.6
20260906110334 84 17 3.0 10.0 0.00 0.00 0.00 45 1013.4
20260906105532 84 349 4.0 9.0 0.00 0.00 0.00 43 1013.5
20260906105335 84 30 4.0 10.0 0.00 0.00 0.00 43 1013.7
20260906104532 84 279 4.0 12.0 0.00 0.00 0.00 43 1013.6
20260906104334 84 350 5.0 12.0 0.00 0.00 0.00 43 1013.6
20260906103329 84 323 4.0 12.0 0.00 0.00 0.00 41 1013.7
20260906102527 83 336 5.0 12.0 0.00 0.00 0.00 41 1013.7
20260906101526 83 329 5.0 12.0 0.00 0.00 0.00 43 1013.7
20260906101330 84 339 5.0 12.0 0.00 0.00 0.00 44 1013.9
20260906100525 84 326 4.0 10.0 0.00 0.00 0.00 44 1013.7
20260906100326 84 317 4.0 10.0 0.00 0.00 0.00 42 1013.8
20260906095323 83 290 4.0 10.0 0.00 0.00 0.00 41 1013.9
20260906094515 83 326 3.0 10.0 0.00 0.00 0.00 42 1013.8
20260906094325 83 298 3.0 9.0 0.00 0.00 0.00 45 1013.9
20260906093513 83 309 2.0 9.0 0.00 0.00 0.00 44 1013.9
20260906092513 82 309 4.0 9.0 0.00 0.00 0.00 45 1014.0
20260906091506 82 331 2.0 9.0 0.00 0.00 0.00 45 1013.9
20260906091316 82 278 3.0 12.0 0.00 0.00 0.00 48 1014.0
20260906090508 82 307 3.0 12.0 0.00 0.00 0.00 47 1014.2
20260906090313 82 326 3.0 8.0 0.00 0.00 0.00 48 1014.2
20260906085500 81 339 4.0 11.0 0.00 0.00 0.00 48 1014.3
20260906085312 81 295 4.0 11.0 0.00 0.00 0.00 48 1014.5
20260906084501 81 272 4.0 13.0 0.00 0.00 0.00 53 1014.4
20260906084307 80 280 4.0 13.0 0.00 0.00 0.00 53 1014.4
20260906083455 80 306 5.0 15.0 0.00 0.00 0.00 52 1014.5
20260906082453 80 298 3.0 8.0 0.00 0.00 0.00 55 1014.6
20260906082309 80 355 3.0 9.0 0.00 0.00 0.00 53 1014.6
20260906080948 80 350 4.0 11.0 0.00 0.00 0.00 57 1014.7
20260906080449 79 342 4.0 10.0 0.00 0.00 0.00 58 1014.7
20260906075945 79 283 4.0 10.0 0.00 0.00 0.00 58 1014.7
20260906075445 79 327 3.0 10.0 0.00 0.00 0.00 58 1014.7
20260906074940 79 326 3.0 9.0 0.00 0.00 0.00 58 1014.7
20260906074441 78 263 3.0 9.0 0.00 0.00 0.00 57 1014.7
20260906073935 78 322 4.0 13.0 0.00 0.00 0.00 57 1014.7
20260906073436 78 329 4.0 13.0 0.00 0.00 0.00 60 1014.7
20260906072932 78 310 3.0 10.0 0.00 0.00 0.00 65 1014.7
20260906072437 77 315 4.0 10.0 0.00 0.00 0.00 66 1014.7
20260906071933 76 340 4.0 10.0 0.00 0.00 0.00 67 1014.8
20260906071429 76 279 3.0 8.0 0.00 0.00 0.00 71 1014.8
20260906070427 75 256 2.0 7.0 0.00 0.00 0.00 76 1014.7
20260906065926 75 252 2.0 7.0 0.00 0.00 0.00 78 1014.8
20260906065424 74 329 2.0 7.0 0.00 0.00 0.00 79 1014.7
20260906064925 74 307 2.0 7.0 0.00 0.00 0.00 80 1014.7
20260906064425 74 283 2.0 7.0 0.00 0.00 0.00 82 1014.7
20260906063926 73 300 2.0 9.0 0.00 0.00 0.00 82 1014.7
20260906063422 72 288 2.0 9.0 0.00 0.00 0.00 84 1014.6
20260906062920 72 279 2.0 8.0 0.00 0.00 0.00 85 1014.6
20260906062420 71 287 2.0 8.0 0.00 0.00 0.00 87 1014.5
20260906061922 71 286 3.0 9.0 0.00 0.00 0.00 88 1014.6
20260906061420 71 350 2.0 9.0 0.00 0.00 0.00 89 1014.6
20260906060418 70 323 2.0 9.0 0.00 0.00 0.00 91 1014.7
20260906055416 69 292 2.0 8.0 0.00 0.00 0.00 93 1014.7
20260906054416 69 275 2.0 7.0 0.00 0.00 0.00 93 1014.5
20260906052914 69 278 2.0 7.0 0.00 0.00 0.00 94 1014.4
20260906052412 69 313 3.0 9.0 0.00 0.00 0.00 94 1014.3
20260906051914 69 277 3.0 9.0 0.00 0.00 0.00 94 1014.4
20260906051415 69 311 2.0 8.0 0.00 0.00 0.00 95 1014.4
20260906050913 69 296 2.0 8.0 0.00 0.00 0.00 94 1014.4
20260906050416 69 315 2.0 9.0 0.00 0.00 0.00 95 1014.4
20260906045412 68 269 2.0 8.0 0.00 0.00 0.00 95 1014.3
20260906044910 68 287 3.0 8.0 0.00 0.00 0.00 95 1014.2
20260906043911 68 314 2.0 7.0 0.00 0.00 0.00 95 1014.2
20260906042909 68 292 2.0 6.0 0.00 0.00 0.00 95 1014.2
20260906042406 68 269 2.0 5.0 0.00 0.00 0.00 95 1013.9
20260906041905 68 297 1.0 5.0 0.00 0.00 0.00 95 1014.0
20260906041404 68 274 2.0 5.0 0.00 0.00 0.00 95 1014.0
20260906040859 68 306 2.0 8.0 0.00 0.00 0.00 95 1014.0
20260906035901 68 290 2.0 7.0 0.00 0.00 0.00 95 1013.9
20260906035405 68 292 2.0 7.0 0.00 0.00 0.00 95 1013.9
20260906034858 68 263 2.0 6.0 0.00 0.00 0.00 95 1013.8
20260906034349 68 265 2.0 6.0 0.00 0.00 0.00 94 1013.8
20260906033848 68 281 1.0 6.0 0.00 0.00 0.00 94 1013.8
20260906033346 68 276 3.0 8.0 0.00 0.00 0.00 94 1013.8
20260906032346 68 300 3.0 9.0 0.00 0.00 0.00 94 1013.7
20260906031840 68 330 3.0 9.0 0.00 0.00 0.00 94 1013.7
20260906031339 68 285 2.0 7.0 0.00 0.00 0.00 94 1013.7
20260906030337 68 294 2.0 9.0 0.00 0.00 0.00 94 1013.7
20260906025837 68 294 2.0 8.0 0.00 0.00 0.00 95 1013.6
20260906025339 68 284 2.0 6.0 0.00 0.00 0.00 95 1013.6
20260906024835 68 308 1.0 6.0 0.00 0.00 0.00 95 1013.6
20260906024335 68 283 1.0 5.0 0.00 0.00 0.00 94 1013.6
20260906023838 68 338 2.0 5.0 0.00 0.00 0.00 94 1013.5
20260906023330 68 295 3.0 8.0 0.00 0.00 0.00 94 1013.4
20260906022828 68 316 3.0 9.0 0.00 0.00 0.00 94 1013.4
20260906021325 68 355 2.0 8.0 0.00 0.00 0.00 94 1013.5
20260906020820 68 296 2.0 6.0 0.00 0.00 0.00 94 1013.5
20260906020318 68 0 3.0 9.0 0.00 0.00 0.00 94 1013.4
20260906015816 68 294 4.0 9.0 0.00 0.00 0.00 94 1013.4
20260906015317 67 301 4.0 9.0 0.00 0.00 0.00 94 1013.3
20260906014321 67 296 3.0 10.0 0.00 0.00 0.00 94 1013.4
20260906013819 67 329 3.0 8.0 0.00 0.00 0.00 94 1013.2
20260906013318 67 294 2.0 6.0 0.00 0.00 0.00 94 1013.1
20260906012817 67 315 2.0 7.0 0.00 0.00 0.00 94 1013.1
20260906012318 67 304 2.0 7.0 0.00 0.00 0.00 94 1013.0
20260906011813 67 313 2.0 4.0 0.00 0.00 0.00 94 1013.1
20260906011314 67 315 2.0 6.0 0.00 0.00 0.00 94 1013.0
20260906010812 68 295 2.0 6.0 0.00 0.00 0.00 94 1013.1
20260906005306 68 305 2.0 5.0 0.00 0.00 0.00 94 1013.0
20260906004803 68 310 2.0 5.0 0.00 0.00 0.00 94 1013.1
20260906004303 68 312 2.0 5.0 0.00 0.00 0.00 93 1013.1
20260906003807 68 284 2.0 7.0 0.00 0.00 0.00 93 1013.1
20260906003302 68 291 2.0 7.0 0.00 0.00 0.00 93 1013.2
20260906002759 68 253 2.0 6.0 0.00 0.00 0.00 93 1013.2
20260906002301 68 284 1.0 6.0 0.00 0.00 0.00 93 1013.2
20260906001757 68 293 1.0 5.0 0.00 0.00 0.00 93 1013.2
20260906001257 68 312 2.0 9.0 0.00 0.00 0.00 93 1013.1
20260906000758 68 351 2.0 9.0 0.00 0.00 0.00 93 1013.0
20260906000258 68 340 2.0 6.0 0.00 0.00 0.00 93 1013.1
20260905235752 68 324 2.0 6.0 0.00 0.00 0.00 93 1013.2
20260905235247 68 325 2.0 9.0 0.00 0.00 0.00 93 1013.2
20260905234247 68 284 3.0 8.0 0.00 0.00 0.00 93 1013.2
20260905233747 68 319 2.0 3.0 0.00 0.00 0.00 93 1013.2
20260905233239 68 319 2.0 8.0 0.00 0.00 0.00 93 1013.2
20260905232732 69 319 2.0 8.0 0.00 0.00 0.00 93 1013.2
20260905232227 69 0 1.0 5.0 0.00 0.00 0.00 93 1013.2
20260905231730 69 325 1.0 4.0 0.00 0.00 0.00 93 1013.2
20260905231228 69 338 1.0 7.0 0.00 0.00 0.00 93 1013.2
20260905230729 69 302 2.0 7.0 0.00 0.00 0.00 93 1013.2
20260905225726 69 350 2.0 8.0 0.00 0.00 0.00 93 1013.2
20260905225225 69 0 3.0 8.0 0.00 0.00 0.00 93 1013.2
20260905224726 69 327 3.0 8.0 0.00 0.00 0.00 93 1013.2
20260905223727 69 355 3.0 8.0 0.00 0.00 0.00 93 1013.3
20260905223217 69 333 3.0 6.0 0.00 0.00 0.00 92 1013.3
20260905222717 69 350 3.0 6.0 0.00 0.00 0.00 92 1013.4
20260905222209 69 315 2.0 5.0 0.00 0.00 0.00 92 1013.4
20260905221710 69 325 2.0 5.0 0.00 0.00 0.00 92 1013.4
20260905220209 69 340 2.0 5.0 0.00 0.00 0.00 92 1013.7
20260905215707 69 342 2.0 6.0 0.00 0.00 0.00 92 1013.7
20260905215207 69 335 2.0 6.0 0.00 0.00 0.00 92 1013.7
20260905214706 69 313 3.0 7.0 0.00 0.00 0.00 92 1013.7
20260905214158 69 302 3.0 8.0 0.00 0.00 0.00 92 1013.8
20260905213658 69 325 3.0 8.0 0.00 0.00 0.00 92 1013.8
20260905213200 69 296 3.0 8.0 0.00 0.00 0.00 92 1013.9
20260905212658 70 338 2.0 6.0 0.00 0.00 0.00 92 1013.9
20260905212158 70 320 2.0 6.0 0.00 0.00 0.00 92 1013.9
20260905211701 70 292 3.0 6.0 0.00 0.00 0.00 92 1013.9
20260905211159 70 321 2.0 5.0 0.00 0.00 0.00 91 1013.9
20260905210657 70 321 2.0 6.0 0.00 0.00 0.00 91 1014.0
20260905210157 70 330 2.0 6.0 0.00 0.00 0.00 91 1014.0
20260905205157 70 13 2.0 7.0 0.00 0.00 0.00 91 1014.2
20260905204700 70 308 2.0 7.0 0.00 0.00 0.00 91 1014.2
20260905204159 70 306 2.0 5.0 0.00 0.00 0.00 91 1014.2
20260905203658 70 312 2.0 5.0 0.00 0.00 0.00 91 1014.3
20260905203201 70 310 2.0 4.0 0.00 0.00 0.00 91 1014.3
20260905202157 70 260 1.0 4.0 0.00 0.00 0.00 91 1014.4
20260905201656 70 273 2.0 7.0 0.00 0.00 0.00 91 1014.3
20260905201154 70 284 2.0 7.0 0.00 0.00 0.00 90 1014.4
20260905200656 70 306 3.0 8.0 0.00 0.00 0.00 90 1014.4
20260905200154 71 311 2.0 8.0 0.00 0.00 0.00 90 1014.4
20260905195656 71 306 2.0 7.0 0.00 0.00 0.00 90 1014.3
20260905195154 71 267 2.0 7.0 0.00 0.00 0.00 90 1014.3
20260905194653 71 290 3.0 11.0 0.00 0.00 0.00 90 1014.4
20260905194152 71 325 3.0 11.0 0.00 0.00 0.00 90 1014.4
20260905192648 71 307 2.0 9.0 0.00 0.00 0.00 89 1014.5
20260905192145 71 285 2.0 9.0 0.00 0.00 0.00 89 1014.5
20260905191640 71 296 2.0 8.0 0.00 0.00 0.00 89 1014.6
20260905190139 71 312 3.0 8.0 0.00 0.00 0.00 88 1014.5
20260905185637 72 280 3.0 8.0 0.00 0.00 0.00 88 1014.5
20260905184638 72 333 3.0 9.0 0.00 0.00 0.00 88 1014.6
20260905184133 72 335 2.0 8.0 0.00 0.00 0.00 88 1014.6
20260905183634 72 325 3.0 9.0 0.00 0.00 0.00 88 1014.7
20260905182624 72 285 3.0 8.0 0.00 0.00 0.00 88 1014.7
20260905182123 72 281 3.0 8.0 0.00 0.00 0.00 88 1014.8
20260905181623 72 319 3.0 8.0 0.00 0.00 0.00 87 1014.8
20260905181123 72 335 3.0 8.0 0.00 0.00 0.00 87 1014.7
20260905180621 72 283 3.0 10.0 0.00 0.00 0.00 87 1014.8
20260905175620 72 331 3.0 9.0 0.00 0.00 0.00 87 1014.8
20260905175121 73 336 3.0 8.0 0.00 0.00 0.00 87 1014.7
20260905174621 73 294 3.0 8.0 0.00 0.00 0.00 86 1014.7
20260905174124 73 249 2.0 8.0 0.00 0.00 0.00 86 1014.6
20260905173620 73 324 3.0 9.0 0.00 0.00 0.00 86 1014.7
20260905173122 73 314 4.0 10.0 0.00 0.00 0.00 85 1014.6
20260905172620 73 342 4.0 11.0 0.00 0.00 0.00 85 1014.4
20260905172120 73 292 4.0 11.0 0.00 0.00 0.00 85 1014.4
20260905171619 74 299 4.0 11.0 0.00 0.00 0.00 84 1014.4
20260905171114 74 340 4.0 10.0 0.00 0.00 0.00 84 1014.4
20260905170611 74 284 4.0 10.0 0.00 0.00 0.00 83 1014.3
20260905170110 74 278 3.0 9.0 0.00 0.00 0.00 83 1014.2
20260905165609 74 288 3.0 8.0 0.00 0.00 0.00 83 1014.2
20260905165115 74 286 3.0 8.0 0.00 0.00 0.00 82 1013.9
20260905164111 74 331 3.0 10.0 0.00 0.00 0.00 81 1013.8
20260905163609 74 319 4.0 10.0 0.00 0.00 0.00 80 1013.7
20260905163103 75 309 4.0 10.0 0.00 0.00 0.00 80 1013.7
20260905162601 75 336 4.0 11.0 0.00 0.00 0.00 79 1013.5
20260905162103 75 310 5.0 13.0 0.00 0.00 0.00 78 1013.6
20260905161101 75 300 5.0 12.0 0.00 0.00 0.00 77 1013.5
20260905160557 76 300 5.0 11.0 0.00 0.00 0.00 76 1013.5
20260905160059 76 286 5.0 13.0 0.00 0.00 0.00 75 1013.6
20260905155556 76 325 6.0 13.0 0.00 0.00 0.00 74 1013.4
20260905155057 76 287 5.0 11.0 0.00 0.00 0.00 73 1013.4
20260905154059 77 294 4.0 10.0 0.00 0.00 0.00 71 1013.5
20260905153558 78 290 4.0 9.0 0.00 0.00 0.00 70 1013.4
20260905153056 78 304 4.0 10.0 0.00 0.00 0.00 69 1013.5
20260905152559 78 312 4.0 10.0 0.00 0.00 0.00 68 1013.4
20260905152055 79 323 5.0 15.0 0.00 0.00 0.00 67 1013.4
20260905151556 79 304 4.0 15.0 0.00 0.00 0.00 66 1013.4
20260905151054 79 283 4.0 9.0 0.00 0.00 0.00 65 1013.4
20260905150558 79 298 3.0 10.0 0.00 0.00 0.00 64 1013.3
20260905150050 80 328 4.0 10.0 0.00 0.00 0.00 64 1013.4
20260905145553 80 309 4.0 10.0 0.00 0.00 0.00 63 1013.4
20260905145051 80 333 3.0 9.0 0.00 0.00 0.00 63 1013.4
20260905144552 80 294 3.0 9.0 0.00 0.00 0.00 63 1013.3
20260905144046 80 344 3.0 9.0 0.00 0.00 0.00 63 1013.3
20260905143543 80 290 3.0 8.0 0.00 0.00 0.00 62 1013.3
20260905142542 81 289 3.0 12.0 0.00 0.00 0.00 62 1013.2
20260905142039 81 331 4.0 12.0 0.00 0.00 0.00 61 1013.2
20260905141539 81 269 4.0 10.0 0.00 0.00 0.00 61 1013.1
20260905140537 81 336 4.0 12.0 0.00 0.00 0.00 61 1013.1
20260905140040 81 270 4.0 12.0 0.00 0.00 0.00 60 1013.1
20260905135541 82 285 4.0 9.0 0.00 0.00 0.00 60 1013.1
20260905135039 82 311 4.0 10.0 0.00 0.00 0.00 59 1013.0
20260905133530 82 297 4.0 11.0 0.00 0.00 0.00 59 1013.0
20260905133028 82 283 4.0 11.0 0.00 0.00 0.00 59 1012.9
20260905132028 82 294 4.0 12.0 0.00 0.00 0.00 56 1013.1
20260905131532 82 320 3.0 10.0 0.00 0.00 0.00 56 1013.1
20260905131024 82 283 4.0 10.0 0.00 0.00 0.00 56 1012.9
20260905130524 83 262 5.0 10.0 0.00 0.00 0.00 56 1013.0
20260905130020 83 322 5.0 10.0 0.00 0.00 0.00 56 1013.0
20260905125518 83 330 5.0 15.0 0.00 0.00 0.00 55 1013.0